Location: Grasslands National Park East Block
(49.0708°N, 106.5295°W)
Time: 01:24:30
(UTC-06:00)

Vanguard 1 Rocket - Pass Details

Date: 22 September 2019
Orbit: 650 x 4226 km, 34.3° (Epoch: 17 October)

Event Time Altitude Azimuth Distance (km) Brightness Sun altitude
Rises 23:26:05 0° 272° (W) 6,684 12.2 -37.0°
Reaches altitude 10° 23:32:28 10° 260° (W) 4,949 11.3 -37.5°
Enters shadow 23:38:54 20° 233° (SW) 3,395 10.1 -38.0°
Maximum altitude 23:41:02 21° 218° (SW) 3,060 - -38.1°
Drops below altitude 10° 23:46:45 10° 171° (S) 3,136 - -38.5°
Sets 23:49:41 0° 155° (SSE) 3,738 - -38.7°
